Location: �chenoz-la-M�line
(47.6009°N, 6.1354°E)
Time: 12:21:10
(UTC+00:00)

Cosmos 2297 - Pass Details

Date: 27 January 2021
Orbit: 834 x 860 km, 71.0° (Epoch: 02 March)

Event Time Altitude Azimuth Distance (km) Brightness Sun altitude
Exits shadow 05:50:11 13° 315° (NW) 2,302 5.5 -13.1°
Maximum altitude 05:54:45 36° 254° (WSW) 1,345 4.3 -12.4°
Drops below altitude 10° 05:59:55 10° 190° (S) 2,488 6.2 -11.6°
Sets 06:02:32 0° 182° (S) 3,418 7.0 -11.1°
